Caledonia, OH

1:22 PM EST on December 07, 2016 (GMT -0500)
Marion Municipal

Weather History for KMNN - February, 2013

Change the Weather History Date:

Tuesday, February 26, 2013

  Actual Average (KMFD) Record (KMFD)
Temperature  
Mean Temperature 34 °F 31 °F  
Max Temperature 41 °F 39 °F 71 °F (2000)
Min Temperature 27 °F 23 °F -8 °F (1963)
Degree Days  
Heating Degree Days 31 34  
Month to date heating degree days 959  
Since 1 July heating degree days 4559  
Cooling Degree Days 0 0  
Month to date cooling degree days 0  
Year to date cooling degree days 0  
Moisture  
Dew Point 32 °F    
Average Humidity 88    
Maximum Humidity 93    
Minimum Humidity 69    
Precipitation  
Precipitation 0.50 in 0.09 in 0.85 in (2013)
Month to date precipitation 2.21  
Year to date precipitation 5.08  
Snow  
Snow 0.00 in 0.40 in - ()
Month to date snowfall 10.6  
Since 1 July snowfall 37.1  
Snow Depth -    
Sea Level Pressure  
Sea Level Pressure 29.64 in    
Wind  
Wind Speed 12 mph (ESE)    
Max Wind Speed 20 mph    
Max Gust Speed 31 mph    
Visibility 7 miles    
Events Rain    
T = Trace of Precipitation, MM = Missing Value Source: NWS Daily Summary

Daily Weather History Graph

Daily Weather History Graph

Search for Another Location

Airport or City:

Trip Planner

Search our weather history database for the weather conditions in past years. The results will help you decide how hot, cold, wet, or windy it might be!

Date:

Astronomy

Feb. 26, 2013 Rise Set
Actual Time 7:10 AM EST 6:20 PM EST
Civil Twilight 6:42 AM EST 6:48 PM EST
Nautical Twilight 6:11 AM EST 7:19 PM EST
Astronomical Twilight 5:39 AM EST 7:51 PM EST
Moon 7:36 PM EST (2/26) 7:11 AM EST (2/26)
Length of Visible Light 12h 05m
Length of Day
11h 10m
Full, 99% of the Moon is Illuminated
Feb 26
Full
Mar 4
Last Quarter
Mar 11
New
Mar 19
First Quarter
Mar 27
Full

Hourly Weather History & Observations

Time (EST) Temp. Windchill Dew Point Humidity Pressure Visibility Wind Dir Wind Speed Gust Speed Precip Events Conditions
12:53 AM 27.0 °F 18.7 °F 23.0 °F 85% 30.02 in 9.0 mi ENE 8.1 mph - N/A   Clear
1:53 AM 28.0 °F 20.8 °F 23.0 °F 81% 30.00 in 10.0 mi ENE 6.9 mph - N/A   Clear
2:53 AM 28.0 °F 20.8 °F 23.0 °F 81% 29.97 in 10.0 mi ENE 6.9 mph - N/A   Clear
3:53 AM 30.0 °F 21.7 °F 24.1 °F 79% 29.92 in 10.0 mi ENE 9.2 mph - N/A   Clear
4:53 AM 32.0 °F 24.2 °F 24.1 °F 73% 29.89 in 10.0 mi East 9.2 mph - N/A   Clear
5:53 AM 32.0 °F 24.2 °F 23.0 °F 69% 29.88 in 10.0 mi East 9.2 mph - N/A   Clear
6:53 AM 32.0 °F 22.1 °F 24.1 °F 73% 29.85 in 10.0 mi East 13.8 mph - N/A   Clear
7:53 AM 33.1 °F 23.9 °F 24.1 °F 70% 29.81 in 10.0 mi East 12.7 mph - N/A   Mostly Cloudy
8:53 AM 34.0 °F 26.0 °F 27.0 °F 75% 29.81 in 8.0 mi East 10.4 mph - 0.00 in Rain Light Rain
9:14 AM 33.8 °F 25.8 °F 28.4 °F 81% 29.77 in 2.5 mi ESE 10.4 mph - 0.01 in Rain Light Rain
9:28 AM 35.6 °F 27.1 °F 30.2 °F 81% 29.75 in 5.0 mi East 12.7 mph - 0.02 in Rain Light Rain
9:53 AM 35.1 °F 26.9 °F 32.0 °F 89% 29.78 in 6.0 mi East 11.5 mph - 0.02 in Rain Light Rain
10:04 AM 35.6 °F 27.5 °F 32.0 °F 87% 29.74 in 7.0 mi East 11.5 mph - 0.00 in Rain Light Rain
10:53 AM 35.1 °F 26.4 °F 32.0 °F 89% 29.74 in 4.0 mi East 12.7 mph - 0.04 in Rain Light Rain
11:53 AM 35.1 °F 25.9 °F 32.0 °F 89% 29.68 in 4.0 mi East 13.8 mph - 0.01 in Rain Light Rain
12:01 PM 35.6 °F 25.9 °F 32.0 °F 87% 29.64 in 3.0 mi East 16.1 mph - 0.01 in Rain Light Rain
12:53 PM 37.0 °F 28.5 °F 34.0 °F 89% 29.62 in 4.0 mi East 13.8 mph - 0.08 in Rain Light Rain
1:01 PM 37.4 °F 28.5 °F 35.6 °F 93% 29.58 in 2.5 mi East 15.0 mph 21.9 mph 0.02 in Rain Rain
1:17 PM 37.4 °F 29.8 °F 35.6 °F 93% 29.59 in 7.0 mi ESE 11.5 mph - 0.04 in Rain Light Rain
1:53 PM 37.0 °F 29.8 °F 35.1 °F 93% 29.62 in 4.0 mi SE 10.4 mph - 0.08 in Rain Rain
2:06 PM 37.4 °F 28.5 °F 33.8 °F 87% 29.57 in 1.8 mi ESE 15.0 mph 20.7 mph 0.05 in Rain Rain
2:15 PM 37.4 °F 28.5 °F 35.6 °F 93% 29.56 in 3.0 mi ESE 15.0 mph - 0.07 in Rain Light Rain
2:41 PM 37.4 °F 28.9 °F 35.6 °F 93% 29.55 in 2.5 mi SE 13.8 mph - 0.12 in Rain Rain
2:53 PM 37.0 °F 27.7 °F 35.1 °F 93% 29.57 in 3.0 mi ESE 16.1 mph 21.9 mph 0.14 in Rain Light Rain
3:27 PM 37.4 °F 28.2 °F 35.6 °F 93% 29.52 in 8.0 mi ESE 16.1 mph - 0.03 in Rain Light Rain
3:35 PM 37.4 °F 27.8 °F 35.6 °F 93% 29.52 in 10.0 mi ESE 17.3 mph - 0.03 in   Overcast
3:45 PM 37.4 °F 27.5 °F 35.6 °F 93% 29.51 in 9.0 mi ESE 18.4 mph - 0.03 in   Overcast
3:53 PM 37.9 °F 27.9 °F 36.0 °F 93% 29.53 in 10.0 mi ESE 19.6 mph - 0.03 in   Overcast
5:42 PM 37.4 °F 27.5 °F 35.6 °F 93% 29.47 in 8.0 mi SE 18.4 mph 31.1 mph 0.02 in Rain Light Rain
5:53 PM 37.9 °F 27.9 °F 35.1 °F 89% 29.49 in 10.0 mi ESE 19.6 mph 28.8 mph 0.02 in   Mostly Cloudy
6:48 PM 37.4 °F 27.8 °F 35.6 °F 93% 29.46 in 10.0 mi SE 17.3 mph 25.3 mph N/A   Overcast
6:53 PM 37.9 °F 28.2 °F 35.1 °F 89% 29.49 in 10.0 mi SE 18.4 mph 25.3 mph N/A   Overcast
7:53 PM 37.9 °F 28.9 °F 36.0 °F 93% 29.50 in 9.0 mi SE 16.1 mph 24.2 mph 0.04 in Rain Light Rain
8:03 PM 37.4 °F 27.5 °F 35.6 °F 93% 29.47 in 7.0 mi SE 18.4 mph - 0.00 in Rain Light Rain
8:35 PM 37.4 °F 27.8 °F 35.6 °F 93% 29.46 in 8.0 mi SE 17.3 mph 25.3 mph 0.03 in Rain Light Rain
8:53 PM 39.0 °F 29.9 °F 36.0 °F 89% 29.48 in 10.0 mi SE 17.3 mph 27.6 mph 0.03 in Rain Light Rain
9:46 PM 39.2 °F 30.8 °F 37.4 °F 93% 29.45 in 10.0 mi SSE 15.0 mph - 0.01 in   Overcast
9:53 PM 39.9 °F 31.8 °F 37.9 °F 93% 29.47 in 10.0 mi SSE 15.0 mph - 0.01 in   Overcast
10:23 PM 39.2 °F 32.0 °F 37.4 °F 93% 29.44 in 10.0 mi SSE 11.5 mph - N/A   Overcast
10:53 PM 41.0 °F 33.5 °F 39.0 °F 93% 29.47 in 10.0 mi South 13.8 mph - N/A   Overcast
11:53 PM 41.0 °F 34.3 °F 39.0 °F 93% 29.49 in 10.0 mi SSW 11.5 mph - 0.00 in   Overcast